sat.trackr.live / text

‹ back to catalog

STARLINK-11296 [DTC]

NORAD 61699 · 2024-195N

PAYLOAD ACTIVE UNKNOWN

§ Identity

Operator
Country
US
Launch date
2024-10-30
Launch site
AFWTR
Launch vehicle
Mass (kg)
RCS (m²)

Purposes: comms

External: N2YO · Heavens-Above · Gunter

§ Orbital elements

Epoch: 2026-05-25T00:01:22.109376Z

Period
91.74 min
Inclination
53.1596°
Eccentricity
0.0000947
Mean motion
15.69710426 rev/d
Perigee alt
359.1 km
Apogee alt
360.4 km
Semi-major
6,737.9 km
B*
1.5261e-5
RAAN
9.7412°
Arg perigee
120.4197°
Mean anomaly
239.6915°
Rev number
9,102

§ Raw data

STARLINK-11296 [DTC]1 61699U 24195N   26145.00095034  .00001261  00000+0  15261-4 0  99992 61699  53.1596   9.7412 0000947 120.4197 239.6915 15.69710426 91027

JSON: /api/v1/satellites/61699 · /tle

For live sub-satellite position, see the globe view (requires WebGL).

§ Visibility from observer

Set your observer location to see the next 7 days of passes ≥ 10°. The values pass through the URL so the page stays shareable.

No JS? Fill the form by hand. The geolocation button needs JavaScript.